Skynet 4E

operational
NORAD ID: 25639 Int'l Des: 1999-009 Owner: MOD Country: UK
HEOCIRCULAR

关于 Skynet 4E

正在加载描述...

实时位置

正在加载3D地球...

即将过境

高度历史

Altitude vs Time

uPlot chart will show altitude changes over time

两行轨道根数

1 25639U 99009B 26071.27124515 -.00000104 00000-0 00000-0 0 9991
2 25639 12.0091 9.6200 0003720 284.0556 257.0949 0.99026431 50194
Epoch: Mar 12, 2026 • Age: 39 hours

当前状态

高度 36125.9 km
速度 3.06 km/s
星下点 -10.15°S, 82.26°W
发射日期 Feb 26, 1999
运行时间 27 years
类型 other

技术详情

分类 Payload
质量 823.00 kg
干质量 719.00 kg
总质量 1490.00 kg
长度 2.10 m
直径 1.90 m
跨度 16.00 m
形状 Box + 2 Pan
制造商 MMSS
平台类型 ECS
阶段状态 Renamed
所有者/国家 MOD/UK

大型星座

Loading constellations...